Regional Weather Roundup
Issued by NWS Albany, NY

Home | Current Version | Previous Version | Text Only | Print | Product List | Glossary On
Versions: 1 2 3 4 5 6 7 8 9 10 11 12 13 14 15 16 17 18 19 20 21 22 23 24 25 26 27 28 29 30 31 32 33 34 35 36 37 38 39 40 41 42 43 44 45 46 47 48 49 50
000
ASUS41 KALY 271310
RWRALY

NEW YORK STATE HOURLY WEATHER ROUNDUP
NATIONAL WEATHER SERVICE ALBANY NY
800 AM EST TUE JAN 27 2015

NOTE: "FAIR" INDICATES FEW OR NO CLOUDS BELOW 12,000 FEET WITH NO
SIGNIFICANT WEATHER AND/OR NO OBSTRUCTIONS TO VISIBILITY.

NYZ032-033-038>043-046>054-057>066-NYZ062>081-271400-
EAST


CITY           SKY/WX    TMP DP  RH WIND       PRES   REMARKS
ALBANY         FLURRIES  13   1  59 N14       29.84R WCI  -2
GLENS FALLS    CLOUDY    13   0  56 NE8       29.85S WCI   2
POUGHKEEPSIE   CLOUDY    18   8  65 N16G24    29.75R HAZE    WCI   3
NEWBURGH       CLOUDY    19  12  73 N12G23    29.73R WCI   7
MONTGOMERY     CLOUDY    18  14  84 CALM      29.72R
WHITE PLAINS   LGT SNOW  18  12  77 NW23G36   29.63R VSB 1   WCI   0
ISLIP          HVY SNOW  22  19  89 N17       29.58R VSB 1/8 WCI   8
NEW YORK CITY  CLOUDY    22  14  71 N18G32    29.67R WCI   7
CENTRAL PARK   CLOUDY    23  13  65 VRB7G20   29.70R WCI  15
$$

NYZ005>009-017-018-044>046-055-056-271400-
CENTRAL


CITY           SKY/WX    TMP DP  RH WIND       PRES   REMARKS
FULTON         PTCLDY     6  -1  73 N15G23    29.94R WCI -12
SYRACUSE       CLOUDY     6   1  80 NW10      29.92R WCI  -9
ROME           CLOUDY     8  -2  63 NW14      29.92R WCI  -8
ELMIRA         CLOUDY    16  10  77 NW5       29.86R WCI   9
BINGHAMTON     PTCLDY    13   6  74 NW13      29.75R WCI  -2
MONTICELLO     CLOUDY    16   3  57 NW9       29.69R WCI   4
$$

NYZ026>034-041>043-271400-
NORTH


CITY           SKY/WX    TMP DP  RH WIND       PRES   REMARKS
WATERTOWN      PTCLDY     5  -4  66 NE16      30.01R WCI -14
FORT DRUM      NOT AVBL
MASSENA        CLOUDY     6  -4  63 NE16      30.08R WCI -12
SARANAC LAKE   CLOUDY     2  -7  66 N5        29.82R WCI  -8
PLATTSBURGH    CLOUDY     7  -4  60 N20       30.01R WCI -13
$$

NYZ001>004-010>016-019>021-271400-
WEST


CITY           SKY/WX    TMP DP  RH WIND       PRES   REMARKS
NIAGARA FALLS  FLURRIES  14   9  80 NE10      30.01R WCI   1
BUFFALO        LGT SNOW  14   8  77 NE8       29.99R WCI   3
DUNKIRK        LGT SNOW  17  12  80 NE10      29.98R WCI   5
JAMESTOWN      CLOUDY    12   9  85 N7        29.87R WCI   2
WELLSVILLE     CLOUDY    13   9  84 N9        29.81R WCI   1
ROCHESTER      LGT SNOW  14   9  80 NE14      29.99R WCI  -1
PENN YAN       CLOUDY    15  11  83 NW10      29.90R FOG     WCI   2
$$

             KEY
       WCI = WIND CHILL INDEX
       VSB = VISIBILITY
       HX  = HEAT INDEX
$$


USA.gov is the U.S. government's official web portal to all federal, state and local government web resources and services.